| time (UTC) | temp F | wind direction | speed knots | gust knots | rain 1hr in | rain 24hr in | rain mn in | humidity % | barometer mb |
| 20260506155522 | 61 | 0.0 | 0.0 | 0.26 | 0.27 | 0.27 | 88 | 1015.9 | |
| 20260506154547 | 61 | 0 | 0.9 | 1.7 | 0.26 | 0.26 | 0.26 | 89 | 1015.5 |
| 20260506153522 | 61 | 0.0 | 0.0 | 0.23 | 0.23 | 0.23 | 88 | 1015.4 | |
| 20260506152522 | 62 | 0.0 | 0.0 | 0.18 | 0.18 | 0.18 | 87 | 1016.0 | |
| 20260506151522 | 63 | 0.0 | 0.0 | 0.04 | 0.04 | 0.04 | 85 | 1015.2 | |
| 20260506150547 | 63 | 0.0 | 0.9 | 0.02 | 0.02 | 0.02 | 86 | 1015.1 | |
| 20260506145522 | 63 | 0.0 | 0.0 | 0.01 | 0.01 | 0.01 | 85 | 1014.5 | |
| 20260506144522 | 63 | 0.0 | 0.0 | 0.00 | 0.00 | 0.00 | 84 | 1014.7 | |
| 20260506143522 | 63 | 0.0 | 0.0 | 0.00 | 0.00 | 0.00 | 83 | 1014.2 | |
| 20260506142522 | 63 | 0.0 | 0.0 | 0.00 | 0.00 | 0.00 | 82 | 1014.3 | |
| 20260506141522 | 62 | 0.0 | 0.0 | 0.00 | 0.00 | 0.00 | 81 | 1014.3 | |
| 20260506140522 | 62 | 0.0 | 0.0 | 0.00 | 0.00 | 0.00 | 82 | 1014.2 | |
| 20260506135522 | 62 | 0.0 | 0.0 | 0.00 | 0.00 | 0.00 | 81 | 1013.9 | |
| 20260506134521 | 63 | 0.0 | 0.0 | 0.00 | 0.00 | 0.00 | 79 | 1013.9 | |
| 20260506133547 | 63 | 0.0 | 0.0 | 0.00 | 0.00 | 0.00 | 78 | 1013.5 | |
| 20260506132522 | 64 | 0.0 | 0.0 | 0.00 | 0.00 | 0.00 | 77 | 1014.3 | |
| 20260506131522 | 64 | 0.0 | 0.0 | 0.00 | 0.00 | 0.00 | 75 | 1014.7 | |
| 20260506130521 | 64 | 0.0 | 0.0 | 0.00 | 0.00 | 0.00 | 75 | 1014.2 | |
| 20260506125521 | 64 | 0.0 | 0.0 | 0.00 | 0.00 | 0.00 | 76 | 1014.3 | |
| 20260506124522 | 64 | 0.0 | 0.0 | 0.00 | 0.00 | 0.00 | 75 | 1014.1 | |
| 20260506123522 | 64 | 0.0 | 0.9 | 0.00 | 0.00 | 0.00 | 75 | 1013.8 | |
| 20260506122522 | 64 | 0.0 | 0.0 | 0.00 | 0.00 | 0.00 | 72 | 1014.1 | |
| 20260506121521 | 64 | 0.0 | 0.9 | 0.00 | 0.00 | 0.00 | 71 | 1013.9 | |
| 20260506120522 | 65 | 0.0 | 0.9 | 0.00 | 0.00 | 0.00 | 70 | 1013.8 | |
| 20260506115521 | 65 | 0.0 | 0.0 | 0.00 | 0.00 | 0.00 | 70 | 1014.0 | |
| 20260506114522 | 65 | 0.0 | 0.9 | 0.00 | 0.00 | 0.00 | 69 | 1014.1 | |
| 20260506113521 | 65 | 0.0 | 1.7 | 0.00 | 0.00 | 0.00 | 69 | 1013.8 | |
| 20260506112521 | 65 | 0.0 | 0.9 | 0.00 | 0.00 | 0.00 | 69 | 1013.9 | |
| 20260506111521 | 65 | 0.0 | 0.9 | 0.00 | 0.00 | 0.00 | 68 | 1014.0 | |
| 20260506110521 | 65 | 0.0 | 0.9 | 0.00 | 0.00 | 0.00 | 68 | 1014.0 | |
| 20260506105521 | 65 | 0.0 | 1.7 | 0.00 | 0.00 | 0.00 | 67 | 1013.8 | |
| 20260506104521 | 65 | 135 | 0.9 | 1.7 | 0.00 | 0.00 | 0.00 | 67 | 1013.5 |
| 20260506103521 | 65 | 135 | 0.9 | 0.9 | 0.00 | 0.00 | 0.00 | 67 | 1013.3 |
| 20260506102522 | 65 | 135 | 0.9 | 1.7 | 0.00 | 0.00 | 0.00 | 67 | 1013.3 |
| 20260506101547 | 65 | 135 | 0.9 | 1.7 | 0.00 | 0.00 | 0.00 | 68 | 1013.1 |
| 20260506100546 | 65 | 135 | 0.9 | 1.7 | 0.00 | 0.00 | 0.00 | 68 | 1013.2 |
| 20260506095521 | 65 | 135 | 0.9 | 1.7 | 0.00 | 0.00 | 0.00 | 68 | 1013.2 |
| 20260506094521 | 66 | 135 | 0.9 | 1.7 | 0.00 | 0.00 | 0.00 | 66 | 1013.1 |
| 20260506093521 | 66 | 135 | 0.9 | 2.6 | 0.00 | 0.00 | 0.00 | 66 | 1013.3 |
| 20260506092521 | 66 | 0.0 | 0.9 | 0.00 | 0.00 | 0.00 | 65 | 1013.3 | |
| 20260506091546 | 66 | 0.0 | 0.9 | 0.00 | 0.00 | 0.00 | 64 | 1013.1 | |
| 20260506090521 | 66 | 0.0 | 2.6 | 0.00 | 0.00 | 0.00 | 63 | 1013.4 | |
| 20260506085521 | 66 | 0.0 | 2.6 | 0.00 | 0.00 | 0.00 | 63 | 1013.4 | |
| 20260506084521 | 66 | 0.0 | 0.9 | 0.00 | 0.00 | 0.00 | 62 | 1013.3 | |
| 20260506083521 | 66 | 0.0 | 0.9 | 0.00 | 0.00 | 0.00 | 62 | 1013.3 | |
| 20260506082521 | 66 | 0.0 | 0.9 | 0.00 | 0.00 | 0.00 | 62 | 1013.3 | |
| 20260506081521 | 65 | 0.0 | 1.7 | 0.00 | 0.00 | 0.00 | 62 | 1013.5 | |
| 20260506080521 | 65 | 0.0 | 0.9 | 0.00 | 0.00 | 0.00 | 62 | 1013.5 | |
| 20260506073521 | 60 | 0.0 | 1.7 | 0.00 | 0.00 | 0.00 | 69 | 1013.4 | |
| 20260506072521 | 58 | 0.0 | 0.0 | 0.00 | 0.00 | 0.00 | 73 | 1013.2 | |
| 20260506071521 | 58 | 0.0 | 0.0 | 0.00 | 0.00 | 0.00 | 73 | 1013.5 | |
| 20260506070522 | 59 | 0.0 | 0.9 | 0.00 | 0.00 | 0.00 | 73 | 1013.8 | |
| 20260506061521 | 62 | 0.0 | 0.0 | 0.00 | 0.00 | 0.00 | 66 | 1015.0 | |
| 20260506060521 | 62 | 0.0 | 0.0 | 0.00 | 0.00 | 0.00 | 64 | 1014.7 | |
| 20260506050521 | 64 | 0.0 | 0.9 | 0.00 | 0.00 | 0.00 | 61 | 1014.4 | |
| 20260506044521 | 64 | 0.0 | 0.9 | 0.00 | 0.00 | 0.00 | 61 | 1015.2 | |
| 20260506043521 | 64 | 0.0 | 0.9 | 0.00 | 0.00 | 0.00 | 60 | 1015.3 | |
| 20260506042521 | 64 | 0.0 | 0.0 | 0.00 | 0.00 | 0.00 | 61 | 1015.2 | |
| 20260506041546 | 63 | 0.0 | 0.9 | 0.00 | 0.00 | 0.00 | 63 | 1014.9 | |
| 20260506040520 | 62 | 0.0 | 0.9 | 0.00 | 0.00 | 0.00 | 64 | 1014.7 | |
| 20260506035546 | 62 | 0.0 | 0.9 | 0.00 | 0.00 | 0.00 | 64 | 1014.8 | |
| 20260506034521 | 62 | 135 | 0.9 | 0.9 | 0.00 | 0.00 | 0.00 | 64 | 1014.9 |
| 20260506033521 | 62 | 135 | 0.9 | 1.7 | 0.00 | 0.00 | 0.00 | 64 | 1014.7 |
| 20260506032521 | 63 | 0.0 | 0.9 | 0.00 | 0.00 | 0.00 | 63 | 1014.8 | |
| 20260506031521 | 63 | 0.0 | 0.9 | 0.00 | 0.00 | 0.00 | 62 | 1014.8 | |
| 20260506030521 | 63 | 90 | 0.9 | 1.7 | 0.00 | 0.00 | 0.00 | 62 | 1014.9 |
| 20260506025546 | 63 | 0.0 | 0.9 | 0.00 | 0.00 | 0.00 | 60 | 1015.3 | |
| 20260506024521 | 64 | 0.0 | 1.7 | 0.00 | 0.00 | 0.00 | 58 | 1015.2 | |
| 20260506023521 | 64 | 0.0 | 0.9 | 0.00 | 0.00 | 0.00 | 59 | 1014.8 | |
| 20260506022521 | 64 | 0.0 | 0.9 | 0.00 | 0.00 | 0.00 | 58 | 1014.6 | |
| 20260506021521 | 64 | 0.0 | 0.9 | 0.00 | 0.00 | 0.00 | 57 | 1014.3 | |
| 20260506020521 | 65 | 0.0 | 2.6 | 0.00 | 0.00 | 0.00 | 56 | 1014.2 | |
| 20260506015546 | 65 | 0.0 | 0.9 | 0.00 | 0.00 | 0.00 | 55 | 1014.2 | |
| 20260506014520 | 66 | 0.0 | 0.9 | 0.00 | 0.00 | 0.00 | 54 | 1014.2 | |
| 20260506013521 | 66 | 0.0 | 0.9 | 0.00 | 0.00 | 0.00 | 54 | 1013.8 | |
| 20260506012546 | 66 | 113 | 0.9 | 2.6 | 0.00 | 0.00 | 0.00 | 55 | 1014.1 |
| 20260506011521 | 66 | 0.0 | 0.9 | 0.00 | 0.00 | 0.00 | 53 | 1013.9 | |
| 20260506010546 | 66 | 0.0 | 0.9 | 0.00 | 0.00 | 0.00 | 53 | 1013.7 | |
| 20260506005521 | 67 | 0.0 | 0.9 | 0.00 | 0.00 | 0.00 | 52 | 1013.7 | |
| 20260506004521 | 68 | 0.0 | 0.9 | 0.00 | 0.00 | 0.00 | 52 | 1013.7 | |
| 20260506003521 | 68 | 0.0 | 0.9 | 0.00 | 0.00 | 0.00 | 50 | 1013.5 | |
| 20260506002520 | 69 | 0.0 | 1.7 | 0.00 | 0.00 | 0.00 | 48 | 1013.5 | |
| 20260506001520 | 69 | 0.0 | 0.9 | 0.00 | 0.00 | 0.00 | 47 | 1013.5 | |
| 20260506000520 | 69 | 0.0 | 1.7 | 0.00 | 0.00 | 0.00 | 47 | 1013.3 | |
| 20260505235521 | 69 | 0.0 | 1.7 | 0.00 | 0.00 | 0.00 | 46 | 1013.6 | |
| 20260505234520 | 69 | 0.0 | 1.7 | 0.00 | 0.00 | 0.00 | 45 | 1013.4 | |
| 20260505233546 | 70 | 158 | 0.9 | 4.3 | 0.00 | 0.00 | 0.00 | 45 | 1013.4 |
| 20260505232521 | 70 | 135 | 0.9 | 2.6 | 0.00 | 0.00 | 0.00 | 45 | 1013.5 |
| 20260505231546 | 70 | 0.0 | 1.7 | 0.00 | 0.00 | 0.00 | 46 | 1013.4 | |
| 20260505230520 | 71 | 135 | 0.9 | 2.6 | 0.00 | 0.00 | 0.00 | 45 | 1013.4 |
| 20260505225520 | 71 | 90 | 0.9 | 1.7 | 0.00 | 0.00 | 0.00 | 44 | 1013.5 |
| 20260505224521 | 71 | 0.0 | 1.7 | 0.00 | 0.00 | 0.00 | 43 | 1013.5 | |
| 20260505223520 | 71 | 135 | 1.7 | 3.5 | 0.00 | 0.00 | 0.00 | 42 | 1013.5 |
| 20260505222521 | 72 | 135 | 0.9 | 2.6 | 0.00 | 0.00 | 0.00 | 43 | 1013.4 |
| 20260505221520 | 72 | 135 | 1.7 | 4.3 | 0.00 | 0.00 | 0.00 | 42 | 1013.3 |
| 20260505220520 | 72 | 113 | 0.9 | 2.6 | 0.00 | 0.00 | 0.00 | 42 | 1013.5 |
| 20260505215520 | 72 | 0 | 1.7 | 4.3 | 0.00 | 0.00 | 0.00 | 43 | 1013.3 |
| 20260505214520 | 73 | 0.0 | 1.7 | 0.00 | 0.00 | 0.00 | 42 | 1013.4 | |
| 20260505213546 | 74 | 135 | 0.9 | 3.5 | 0.00 | 0.00 | 0.00 | 43 | 1013.7 |
| 20260505212520 | 74 | 23 | 0.9 | 4.3 | 0.00 | 0.00 | 0.00 | 41 | 1013.6 |
| 20260505211520 | 74 | 158 | 0.9 | 1.7 | 0.00 | 0.00 | 0.00 | 42 | 1013.7 |
| 20260505210545 | 74 | 0.0 | 2.6 | 0.00 | 0.00 | 0.00 | 41 | 1013.9 | |
| 20260505205520 | 74 | 135 | 0.9 | 2.6 | 0.00 | 0.00 | 0.00 | 42 | 1014.1 |
| 20260505204520 | 73 | 158 | 0.9 | 4.3 | 0.00 | 0.00 | 0.00 | 44 | 1013.9 |
| 20260505203547 | 72 | 225 | 0.9 | 3.5 | 0.00 | 0.00 | 0.00 | 44 | 1014.0 |
| 20260505202548 | 72 | 135 | 0.9 | 4.3 | 0.00 | 0.00 | 0.00 | 43 | 1013.8 |
| 20260505201522 | 72 | 113 | 1.7 | 5.2 | 0.00 | 0.00 | 0.00 | 41 | 1013.9 |
| 20260505200546 | 72 | 135 | 0.9 | 2.6 | 0.00 | 0.00 | 0.00 | 41 | 1014.0 |
| 20260505195522 | 73 | 113 | 0.9 | 6.1 | 0.00 | 0.00 | 0.00 | 40 | 1014.0 |
| 20260505194522 | 73 | 203 | 1.7 | 4.3 | 0.00 | 0.00 | 0.00 | 41 | 1014.2 |
| 20260505193522 | 74 | 113 | 1.7 | 3.5 | 0.00 | 0.00 | 0.00 | 40 | 1014.2 |
| 20260505192522 | 74 | 135 | 0.9 | 4.3 | 0.00 | 0.00 | 0.00 | 40 | 1014.3 |
| 20260505191522 | 75 | 180 | 0.9 | 2.6 | 0.00 | 0.00 | 0.00 | 41 | 1014.6 |
| 20260505190522 | 74 | 248 | 0.9 | 4.3 | 0.00 | 0.00 | 0.00 | 42 | 1014.8 |
| 20260505185522 | 75 | 113 | 1.7 | 5.2 | 0.00 | 0.00 | 0.00 | 42 | 1014.9 |
| 20260505184522 | 76 | 113 | 1.7 | 3.5 | 0.00 | 0.00 | 0.00 | 40 | 1015.1 |
| 20260505183612 | 77 | 0.0 | 4.3 | 0.00 | 0.00 | 0.00 | 39 | 1015.3 | |
| 20260505182522 | 78 | 0.0 | 1.7 | 0.00 | 0.00 | 0.00 | 38 | 1015.4 | |
| 20260505181522 | 80 | 0.0 | 0.9 | 0.00 | 0.00 | 0.00 | 35 | 1015.6 | |
| 20260505180547 | 79 | 113 | 0.9 | 2.6 | 0.00 | 0.00 | 0.00 | 36 | 1015.8 |
| 20260505175522 | 80 | 135 | 0.9 | 2.6 | 0.00 | 0.00 | 0.00 | 34 | 1016.3 |
| 20260505174522 | 79 | 135 | 0.9 | 1.7 | 0.00 | 0.00 | 0.00 | 35 | 1016.1 |
| 20260505173522 | 79 | 203 | 0.9 | 3.5 | 0.00 | 0.00 | 0.00 | 36 | 1016.7 |
| 20260505172547 | 78 | 135 | 0.9 | 2.6 | 0.00 | 0.00 | 0.00 | 37 | 1016.8 |
| 20260505171522 | 78 | 90 | 0.9 | 2.6 | 0.00 | 0.00 | 0.00 | 37 | 1016.9 |
| 20260505170522 | 75 | 135 | 0.9 | 1.7 | 0.00 | 0.00 | 0.00 | 40 | 1016.6 |
| 20260505165522 | 74 | 135 | 1.7 | 3.5 | 0.00 | 0.00 | 0.00 | 40 | 1016.6 |
| 20260505164522 | 75 | 113 | 1.7 | 3.5 | 0.00 | 0.00 | 0.00 | 40 | 1016.7 |
| 20260505163522 | 74 | 0.0 | 0.9 | 0.00 | 0.00 | 0.00 | 44 | 1016.7 | |
| 20260505162522 | 74 | 23 | 0.9 | 1.7 | 0.00 | 0.00 | 0.00 | 41 | 1016.7 |
| 20260505161522 | 75 | 0 | 0.9 | 2.6 | 0.00 | 0.00 | 0.00 | 42 | 1017.0 |
| 20260505160522 | 74 | 0.0 | 0.9 | 0.00 | 0.00 | 0.00 | 43 | 1017.1 |